Location: Proctor
(47.8934°N, 114.3048°W)
Time: 20:34:01
(UTC+00:00)

Tiros 1 despin weight - Pass Details

Date: 04 July 2024
Orbit: 576 x 620 km, 48.2° (Epoch: 19 July)

Event Time Altitude Azimuth Distance (km) Brightness Sun altitude
Rises 19:40:37 0° 284° (WNW) 2,886 ? 64.9°
Reaches altitude 10° 19:42:57 10° 280° (W) 1,983 ? 64.9°
Maximum altitude 19:47:25 58° 203° (SSW) 725 ? 64.9°
Drops below altitude 10° 19:51:55 10° 124° (SE) 1,982 ? 64.8°
Sets 19:54:14 0° 120° (ESE) 2,885 ? 64.8°
